^^
Saratoga-Weather Station Historical Data
Daily Summary for July 5, 2020 Units:  English    Metric   Both
Daily Weekly Monthly Yearly Custom
  High: Low: Average:
Temperature: 55.8 °F 49.6 °F 52.9 °F
Dew Point: 52.3 °F 45.1 °F 48.7 °F
Humidity: 93% 73% 86%
Wind Speed: 12.1mph 0mph 3.5mph
Wind Gust: 18mph - -
Wind- - WSW
Pressure: 29.5 in 29.4 in -
Precipitation: 0.54 in    
Historical Graphs
 
 
Tabular Data for July 5, 2020
Time Temperature Dew Point Pressure Wind Wind Speed Wind Gust Humidity Rainfall Rate (Hourly) solar
00:01 53.6 °F 49.3 °F 29.5 in WSW 2.9 mph 6 mph 85% 0 in 0 W/m2
00:06 53.6 °F 49.3 °F 29.5 in WNW 4.9 mph 5 mph 85% 0 in 0 W/m2
00:11 53.4 °F 49.3 °F 29.5 in West 0.9 mph 3 mph 86% 0 in 0 W/m2
00:16 53.4 °F 49.3 °F 29.5 in WNW 2 mph 6 mph 86% 0 in 0 W/m2
00:21 53.4 °F 49.3 °F 29.5 in NW 2 mph 4 mph 86% 0 in 0 W/m2
00:26 53.4 °F 49.3 °F 29.5 in West 2 mph 6 mph 86% 0 in 0 W/m2
00:31 53.2 °F 49.5 °F 29.5 in WSW 2 mph 6 mph 87% 0 in 0 W/m2
00:36 53.2 °F 49.5 °F 29.5 in WSW 2.9 mph 8 mph 87% 0 in 0 W/m2
00:41 53.1 °F 49.6 °F 29.5 in West 0.9 mph 9 mph 88% 0 in 0 W/m2
00:46 53.1 °F 49.6 °F 29.5 in West 2.9 mph 3 mph 88% 0 in 0 W/m2
00:51 53.1 °F 49.8 °F 29.5 in West 6 mph 9 mph 89% 0 in 0 W/m2
00:56 53.1 °F 49.8 °F 29.5 in WNW 6 mph 6 mph 89% 0 in 0 W/m2
01:01 53.1 °F 49.8 °F 29.5 in West 2.9 mph 7 mph 89% 0 in 0 W/m2
01:06 53.1 °F 49.8 °F 29.5 in WNW 2.9 mph 6 mph 89% 0 in 0 W/m2
01:11 53.1 °F 49.8 °F 29.5 in West 2.9 mph 6 mph 89% 0 in 0 W/m2
01:16 52.9 °F 49.6 °F 29.5 in WNW 2 mph 7 mph 89% 0 in 0 W/m2
01:21 52.9 °F 49.6 °F 29.5 in West 2 mph 4 mph 89% 0 in 0 W/m2
01:26 52.9 °F 49.6 °F 29.5 in West 2 mph 7 mph 89% 0 in 0 W/m2
01:31 52.9 °F 49.6 °F 29.5 in NW 2 mph 4 mph 89% 0 in 0 W/m2
01:36 52.9 °F 49.5 °F 29.5 in West 2 mph 7 mph 88% 0 in 0 W/m2
01:41 52.9 °F 49.1 °F 29.5 in WNW 4 mph 7 mph 87% 0 in 0 W/m2
01:47 52.9 °F 49.1 °F 29.5 in West 2.9 mph 4 mph 87% 0 in 0 W/m2
01:52 52.5 °F 48.4 °F 29.5 in WSW 4 mph 4 mph 86% 0 in 0 W/m2
01:57 52.5 °F 48.2 °F 29.5 in WSW 4 mph 6 mph 85% 0 in 0 W/m2
02:02 52.3 °F 47.7 °F 29.5 in WSW 2 mph 6 mph 84% 0 in 0 W/m2
02:07 52.3 °F 47.7 °F 29.5 in West 2.9 mph 8 mph 84% 0 in 0 W/m2
02:12 52.2 °F 47.5 °F 29.5 in West 2.9 mph 4 mph 84% 0 in 0 W/m2
02:17 52.2 °F 47.5 °F 29.5 in WNW 4.9 mph 8 mph 84% 0 in 0 W/m2
02:22 52.2 °F 47.5 °F 29.5 in WNW 4 mph 4 mph 84% 0 in 0 W/m2
02:27 52 °F 47.3 °F 29.5 in WNW 4 mph 4 mph 84% 0 in 0 W/m2
02:32 52 °F 47.3 °F 29.5 in WSW 2.9 mph 4 mph 84% 0 in 0 W/m2
02:38 52 °F 47.7 °F 29.5 in West 4 mph 4 mph 85% 0 in 0 W/m2
02:43 52 °F 47.7 °F 29.5 in WSW 2.9 mph 9 mph 85% 0 in 0 W/m2
02:48 52 °F 47.7 °F 29.5 in West 2.9 mph 10 mph 85% 0 in 0 W/m2
02:53 51.8 °F 47.5 °F 29.5 in WSW 4.9 mph 8 mph 85% 0 in 0 W/m2
02:58 51.8 °F 47.1 °F 29.5 in NNW 2.9 mph 10 mph 84% 0 in 0 W/m2
03:03 51.8 °F 47.1 °F 29.5 in WNW 2 mph 4 mph 84% 0 in 0 W/m2
03:08 51.8 °F 47.1 °F 29.5 in West 2 mph 6 mph 84% 0 in 0 W/m2
03:13 51.6 °F 46.9 °F 29.5 in WNW 2.9 mph 8 mph 84% 0 in 0 W/m2
03:18 51.4 °F 46.8 °F 29.5 in West 2 mph 4 mph 84% 0 in 0 W/m2
03:23 51.4 °F 46.4 °F 29.5 in West 2.9 mph 8 mph 83% 0 in 0 W/m2
03:28 51.3 °F 46.2 °F 29.5 in West 0.9 mph 5 mph 83% 0 in 0 W/m2
03:33 51.3 °F 46.2 °F 29.5 in West 2 mph 6 mph 83% 0 in 0 W/m2
03:38 51.1 °F 46 °F 29.5 in WSW 4 mph 7 mph 83% 0 in 0 W/m2
03:43 51.1 °F 46.4 °F 29.5 in NW 2 mph 3 mph 84% 0 in 0 W/m2
03:48 50.9 °F 46.6 °F 29.5 in West 2.9 mph 3 mph 85% 0 in 0 W/m2
03:53 50.7 °F 46.4 °F 29.5 in West 0.9 mph 6 mph 85% 0 in 0 W/m2
03:59 50.7 °F 46.8 °F 29.5 in West 2.9 mph 4 mph 86% 0 in 0 W/m2
04:04 50.7 °F 46.9 °F 29.5 in WNW 4 mph 7 mph 87% 0 in 0 W/m2
04:09 50.5 °F 46.8 °F 29.5 in West 2.9 mph 6 mph 87% 0 in 0 W/m2
04:14 50.5 °F 46.8 °F 29.5 in WSW 2 mph 8 mph 87% 0 in 0 W/m2
04:19 50.5 °F 46.8 °F 29.5 in WSW 2.9 mph 6 mph 87% 0 in 0 W/m2
04:24 50.5 °F 46.8 °F 29.5 in WSW 4 mph 8 mph 87% 0 in 0 W/m2
04:29 50.4 °F 46.6 °F 29.5 in WSW 2.9 mph 4 mph 87% 0 in 0 W/m2
04:34 50.4 °F 46.4 °F 29.5 in West 2.9 mph 8 mph 86% 0 in 0 W/m2
04:39 50.4 °F 46 °F 29.5 in West 4 mph 8 mph 85% 0 in 0 W/m2
04:44 50.2 °F 45.9 °F 29.5 in WNW 6.9 mph 7 mph 85% 0 in 0 W/m2
04:49 50.2 °F 45.9 °F 29.5 in NNW 6 mph 6 mph 85% 0 in 0 W/m2
04:54 50 °F 45.7 °F 29.5 in WSW 4 mph 6 mph 85% 0 in 0 W/m2
04:59 50 °F 45.3 °F 29.5 in West 2.9 mph 7 mph 84% 0 in 0 W/m2
05:04 49.8 °F 45.1 °F 29.5 in West 4 mph 7 mph 84% 0 in 0 W/m2
05:09 49.8 °F 45.1 °F 29.5 in West 6 mph 8 mph 84% 0 in 0 W/m2
05:14 49.8 °F 45.1 °F 29.5 in West 6.9 mph 7 mph 84% 0 in 0 W/m2
05:19 49.8 °F 45.1 °F 29.5 in WSW 6.9 mph 8 mph 84% 0 in 0 W/m2
05:24 49.8 °F 45.1 °F 29.5 in WNW 2 mph 6 mph 84% 0 in 0 W/m2
05:29 49.8 °F 45.5 °F 29.5 in WSW 4 mph 6 mph 85% 0 in 0 W/m2
05:34 49.6 °F 45.3 °F 29.5 in West 6.9 mph 7 mph 85% 0 in 0 W/m2
05:39 49.6 °F 45.7 °F 29.5 in West 2 mph 5 mph 86% 0 in 0 W/m2
05:44 49.6 °F 45.9 °F 29.5 in NW 2 mph 8 mph 87% 0 in 5 W/m2
05:49 49.6 °F 45.9 °F 29.5 in WSW 6 mph 7 mph 87% 0 in 5 W/m2
05:54 49.6 °F 45.9 °F 29.5 in SSW 4 mph 9 mph 87% 0 in 7 W/m2
05:59 49.6 °F 46.2 °F 29.5 in WSW 4.9 mph 8 mph 88% 0 in 7 W/m2
06:04 49.6 °F 46.2 °F 29.5 in West 0.9 mph 6 mph 88% 0 in 9 W/m2
06:09 49.6 °F 46.2 °F 29.5 in WNW 2.9 mph 4 mph 88% 0 in 12 W/m2
06:14 49.6 °F 46.6 °F 29.5 in West 2 mph 2 mph 89% 0 in 18 W/m2
06:20 49.6 °F 46.6 °F 29.5 in West 2.9 mph 5 mph 89% 0 in 19 W/m2
06:25 49.6 °F 46.6 °F 29.5 in West 4 mph 6 mph 89% 0 in 23 W/m2
06:30 49.6 °F 46.6 °F 29.5 in WSW 2.9 mph 7 mph 89% 0 in 28 W/m2
06:35 49.6 °F 46.6 °F 29.5 in West 2 mph 6 mph 89% 0 in 33 W/m2
06:40 49.6 °F 46.6 °F 29.5 in Calm   2 mph 89% 0 in 39 W/m2
06:45 49.8 °F 46.9 °F 29.5 in West 2 mph 6 mph 90% 0 in 42 W/m2
06:50 49.6 °F 46.8 °F 29.5 in ENE 0.9 mph 2 mph 90% 0 in 53 W/m2
06:55 49.8 °F 46.9 °F 29.5 in ENE 2 mph 4 mph 90% 0 in 58 W/m2
07:00 49.8 °F 46.9 °F 29.5 in Calm   3 mph 90% 0 in 62 W/m2
07:05 49.8 °F 46.9 °F 29.5 in WSW 2 mph 3 mph 90% 0 in 65 W/m2
07:10 49.8 °F 46.9 °F 29.5 in Calm   3 mph 90% 0 in 58 W/m2
07:15 50.2 °F 47.7 °F 29.5 in Calm   5 mph 91% 0 in 62 W/m2
07:20 50.2 °F 47.3 °F 29.5 in WNW 0.9 mph 4 mph 90% 0 in 67 W/m2
07:25 50.4 °F 47.8 °F 29.5 in NW 0.9 mph 3 mph 91% 0 in 70 W/m2
07:30 50.5 °F 48 °F 29.5 in Calm   3 mph 91% 0 in 97 W/m2
07:35 50.7 °F 47.8 °F 29.5 in NNW 0.9 mph 3 mph 90% 0 in 118 W/m2
07:40 50.7 °F 47.8 °F 29.5 in North 0.9 mph 7 mph 90% 0 in 121 W/m2
07:45 51.1 °F 48.2 °F 29.5 in WSW 0.9 mph 2 mph 90% 0 in 113 W/m2
07:50 51.3 °F 48.2 °F 29.5 in WSW 0.9 mph 7 mph 89% 0 in 118 W/m2
07:55 51.3 °F 48.2 °F 29.5 in Calm   2 mph 89% 0 in 130 W/m2
08:00 51.4 °F 48.4 °F 29.5 in NW 0.9 mph 3 mph 89% 0 in 111 W/m2
08:05 51.4 °F 48.4 °F 29.5 in NNE 2 mph 2 mph 89% 0 in 105 W/m2
08:10 51.6 °F 48.6 °F 29.5 in WSW 2 mph 6 mph 89% 0 in 121 W/m2
08:15 51.6 °F 48.2 °F 29.5 in West 8.1 mph 8 mph 88% 0 in 169 W/m2
08:20 51.8 °F 48.4 °F 29.5 in West 6 mph 6 mph 88% 0 in 165 W/m2
08:25 52 °F 48.6 °F 29.5 in WNW 0.9 mph 2 mph 88% 0 in 160 W/m2
08:30 52 °F 48.6 °F 29.5 in WNW 2.9 mph 3 mph 88% 0 in 167 W/m2
08:35 52.2 °F 48.4 °F 29.5 in WNW 2 mph 3 mph 87% 0 in 169 W/m2
08:40 52.2 °F 48.4 °F 29.5 in North 0.9 mph 3 mph 87% 0 in 149 W/m2
08:45 52.3 °F 48.6 °F 29.5 in NNW 2.9 mph 4 mph 87% 0 in 169 W/m2
08:50 52.5 °F 48.4 °F 29.5 in WNW 2 mph 4 mph 86% 0 in 181 W/m2
08:55 52.7 °F 48.6 °F 29.5 in WNW 2 mph 3 mph 86% 0 in 193 W/m2
09:00 52.9 °F 48.6 °F 29.5 in NNW 4 mph 7 mph 85% 0 in 234 W/m2
09:05 53.1 °F 48.9 °F 29.5 in Calm   3 mph 86% 0 in 197 W/m2
09:10 53.2 °F 48.9 °F 29.5 in Calm   5 mph 85% 0 in 151 W/m2
09:15 53.2 °F 48.6 °F 29.5 in NNE 2 mph 4 mph 84% 0 in 172 W/m2
09:20 53.2 °F 48.6 °F 29.5 in NW 2 mph 4 mph 84% 0 in 232 W/m2
09:25 53.4 °F 48.7 °F 29.5 in SW 0.9 mph 8 mph 84% 0 in 338 W/m2
09:31 53.6 °F 48.9 °F 29.5 in NE 0.9 mph 3 mph 84% 0 in 281 W/m2
09:36 54 °F 48.9 °F 29.5 in NNE 2.9 mph 8 mph 83% 0 in 264 W/m2
09:41 54.1 °F 48.4 °F 29.5 in WNW 4 mph 6 mph 81% 0 in 206 W/m2
09:46 54.1 °F 48.4 °F 29.5 in WSW 2 mph 4 mph 81% 0 in 137 W/m2
09:51 54.1 °F 48.4 °F 29.5 in SSW 0.9 mph 2 mph 81% 0 in 146 W/m2
09:56 54.1 °F 48 °F 29.5 in SSE 4 mph 4 mph 80% 0 in 174 W/m2
10:01 54.5 °F 48.2 °F 29.5 in NNW 4.9 mph 5 mph 79% 0 in 297 W/m2
10:06 54.7 °F 48.4 °F 29.5 in WSW 11 mph 13 mph 79% 0 in 334 W/m2
10:11 54.7 °F 48.4 °F 29.5 in NNE 2.9 mph 3 mph 79% 0 in 239 W/m2
10:16 54.9 °F 47.8 °F 29.5 in SW 2.9 mph 11 mph 77% 0 in 258 W/m2
10:21 55.2 °F 48.2 °F 29.5 in South 4 mph 6 mph 77% 0 in 276 W/m2
10:26 55.4 °F 47.7 °F 29.5 in WNW 2.9 mph 7 mph 75% 0 in 404 W/m2
10:31 55.6 °F 47.5 °F 29.5 in Calm   6 mph 74% 0 in 137 W/m2
10:36 55.6 °F 47.5 °F 29.5 in West 2 mph 2 mph 74% 0 in 93 W/m2
10:41 55.2 °F 47.5 °F 29.5 in ENE 2.9 mph 4 mph 75% 0 in 83 W/m2
10:46 55 °F 47.3 °F 29.5 in East 2 mph 7 mph 75% 0 in 35 W/m2
10:51 54.5 °F 46.8 °F 29.5 in NW 2 mph 5 mph 75% 0 in 33 W/m2
10:56 54.1 °F 46.8 °F 29.5 in West 0.9 mph 3 mph 76% 0 in 79 W/m2
11:01 54.1 °F 47.1 °F 29.5 in NNW 2 mph 5 mph 77% 0 in 243 W/m2
11:06 54.3 °F 47.3 °F 29.5 in WSW 0.9 mph 11 mph 77% 0 in 323 W/m2
11:11 54.9 °F 47.8 °F 29.5 in WNW 2.9 mph 6 mph 77% 0 in 693 W/m2
11:16 55.4 °F 48 °F 29.5 in NNW 0.9 mph 3 mph 76% 0 in 292 W/m2
11:21 55.6 °F 47.8 °F 29.5 in ENE 2 mph 8 mph 75% 0 in 345 W/m2
11:26 55.8 °F 47.3 °F 29.5 in NNW 8.1 mph 9 mph 73% 0 in 302 W/m2
11:31 55.8 °F 47.3 °F 29.5 in SW 2.9 mph 9 mph 73% 0 in 114 W/m2
11:36 55.6 °F 47.5 °F 29.5 in WNW 2.9 mph 8 mph 74% 0 in 160 W/m2
11:41 55 °F 46.9 °F 29.5 in SW 2 mph 7 mph 74% 0 in 283 W/m2
11:46 55.2 °F 47.5 °F 29.5 in NNW 0.9 mph 7 mph 75% 0 in 221 W/m2
11:51 55 °F 46.9 °F 29.4 in WNW 11 mph 11 mph 74% 0 in 218 W/m2
11:56 54.7 °F 47.3 °F 29.4 in WNW 8.1 mph 9 mph 76% 0 in 155 W/m2
12:01 54.7 °F 47.3 °F 29.5 in NW 4 mph 4 mph 76% 0 in 95 W/m2
12:06 54.3 °F 47.7 °F 29.4 in NW 4 mph 8 mph 78% 0 in 179 W/m2
12:11 54.1 °F 47.8 °F 29.5 in NW 8.1 mph 12 mph 79% 0 in 174 W/m2
12:16 54.1 °F 48.4 °F 29.4 in NW 4 mph 7 mph 81% 0 in 285 W/m2
12:21 54.1 °F 48 °F 29.4 in NE 10.1 mph 12 mph 80% 0 in 383 W/m2
12:26 54.7 °F 48.6 °F 29.4 in NNW 2.9 mph 4 mph 80% 0 in 209 W/m2
12:31 54.7 °F 48.6 °F 29.4 in NE 4 mph 11 mph 80% 0 in 241 W/m2
12:36 54.7 °F 48.6 °F 29.4 in NE 2 mph 6 mph 80% 0 in 250 W/m2
12:41 54.9 °F 48.7 °F 29.4 in NW 8.1 mph 18 mph 80% 0 in 301 W/m2
12:47 54.7 °F 48.6 °F 29.4 in NNW 2.9 mph 9 mph 80% 0 in 327 W/m2
12:52 54.9 °F 49.1 °F 29.4 in ENE 2.9 mph 8 mph 81% 0 in 281 W/m2
12:57 54.9 °F 49.5 °F 29.4 in South 4 mph 4 mph 82% 0 in 246 W/m2
13:02 54.7 °F 49.3 °F 29.4 in WNW 2 mph 8 mph 82% 0 in 255 W/m2
13:07 54.7 °F 49.3 °F 29.4 in NNW 4 mph 12 mph 82% 0 in 142 W/m2
13:12 54.3 °F 49.3 °F 29.4 in NNW 4 mph 6 mph 83% 0 in 95 W/m2
13:17 54 °F 49.3 °F 29.4 in North 0.9 mph 8 mph 84% 0 in 134 W/m2
13:22 53.8 °F 49.1 °F 29.4 in ENE 0.9 mph 7 mph 84% 0.01 in 104 W/m2
13:27 53.8 °F 49.5 °F 29.4 in West 2 mph 7 mph 85% 0.01 in 127 W/m2
13:32 53.6 °F 49.5 °F 29.4 in ENE 4.9 mph 7 mph 86% 0.01 in 107 W/m2
13:37 53.4 °F 49.6 °F 29.4 in Calm   4 mph 87% 0.02 in 114 W/m2
13:42 53.4 °F 49.6 °F 29.4 in East 2 mph 4 mph 87% 0.02 in 114 W/m2
13:47 53.4 °F 50 °F 29.4 in NNW 0.9 mph 2 mph 88% 0.03 in 104 W/m2
13:52 53.4 °F 50 °F 29.4 in ENE 2.9 mph 4 mph 88% 0.03 in 90 W/m2
13:57 53.4 °F 50.2 °F 29.4 in North 0.9 mph 1 mph 89% 0.04 in 97 W/m2
14:02 53.4 °F 50.2 °F 29.4 in NNE 4 mph 6 mph 89% 0.06 in 130 W/m2
14:07 53.4 °F 50.2 °F 29.4 in West 2.9 mph 4 mph 89% 0.06 in 127 W/m2
14:12 53.4 °F 50.5 °F 29.4 in NE 2.9 mph 3 mph 90% 0.07 in 244 W/m2
14:17 53.8 °F 50.9 °F 29.4 in WSW 12.1 mph 12 mph 90% 0.07 in 197 W/m2
14:22 53.8 °F 51.3 °F 29.4 in West 2 mph 10 mph 91% 0.07 in 169 W/m2
14:27 54 °F 51.4 °F 29.4 in NW 10.1 mph 12 mph 91% 0.07 in 151 W/m2
14:32 53.8 °F 51.3 °F 29.4 in SSW 2 mph 9 mph 91% 0.07 in 105 W/m2
14:37 53.6 °F 51.1 °F 29.4 in NW 2.9 mph 4 mph 91% 0.06 in 142 W/m2
14:42 53.8 °F 51.3 °F 29.4 in North 4 mph 6 mph 91% 0.06 in 123 W/m2
14:47 53.8 °F 51.3 °F 29.4 in NNW 2.9 mph 3 mph 91% 0.06 in 151 W/m2
14:52 53.8 °F 51.3 °F 29.4 in North 2.9 mph 8 mph 91% 0.06 in 162 W/m2
14:57 54 °F 51.6 °F 29.4 in West 4 mph 12 mph 92% 0.04 in 142 W/m2
15:02 54 °F 51.4 °F 29.4 in NNE 8.9 mph 10 mph 91% 0.04 in 114 W/m2
15:07 54 °F 51.4 °F 29.4 in WNW 2 mph 12 mph 91% 0.03 in 95 W/m2
15:12 54 °F 51.4 °F 29.4 in SSW 0.9 mph 7 mph 91% 0.04 in 209 W/m2
15:17 54.1 °F 51.8 °F 29.4 in ENE 2 mph 12 mph 92% 0.04 in 190 W/m2
15:22 54.3 °F 52 °F 29.4 in SSW 2.9 mph 16 mph 92% 0.04 in 197 W/m2
15:27 54.3 °F 52 °F 29.4 in NE 2.9 mph 7 mph 92% 0.05 in 192 W/m2
15:32 54.1 °F 51.8 °F 29.4 in NW 10.1 mph 16 mph 92% 0.06 in 120 W/m2
15:37 54.1 °F 51.8 °F 29.4 in NW 6.9 mph 10 mph 92% 0.06 in 114 W/m2
15:43 54.1 °F 51.8 °F 29.4 in NW 2 mph 5 mph 92% 0.06 in 109 W/m2
15:48 54.1 °F 51.8 °F 29.4 in NW 2.9 mph 10 mph 92% 0.07 in 146 W/m2
15:53 54.1 °F 51.8 °F 29.4 in SW 0.9 mph 5 mph 92% 0.07 in 137 W/m2
15:58 54.1 °F 51.8 °F 29.4 in NW 4.9 mph 11 mph 92% 0.08 in 77 W/m2
16:03 54.1 °F 51.8 °F 29.4 in East 0.9 mph 6 mph 92% 0.09 in 77 W/m2
16:08 54.1 °F 51.8 °F 29.4 in NW 2.9 mph 8 mph 92% 0.1 in 183 W/m2
16:13 54.3 °F 52.3 °F 29.4 in SSW 4.9 mph 8 mph 93% 0.09 in 188 W/m2
16:18 54.5 °F 52.2 °F 29.4 in ENE 4.9 mph 5 mph 92% 0.1 in 86 W/m2
16:23 54.7 °F 52.3 °F 29.4 in WSW 0.9 mph 5 mph 92% 0.1 in 120 W/m2
16:28 54.7 °F 52.3 °F 29.4 in NNW 2 mph 11 mph 92% 0.1 in 58 W/m2
16:33 54.7 °F 52.3 °F 29.4 in NW 2 mph 5 mph 92% 0.13 in 40 W/m2
16:38 54.5 °F 52.2 °F 29.4 in WNW 8.1 mph 11 mph 92% 0.17 in 26 W/m2
16:43 54.3 °F 52 °F 29.4 in NW 4.9 mph 7 mph 92% 0.2 in 18 W/m2
16:48 54.1 °F 52.2 °F 29.4 in West 6.9 mph 12 mph 93% 0.28 in 37 W/m2
16:53 53.6 °F 51.1 °F 29.4 in West 12.1 mph 14 mph 91% 0.34 in 62 W/m2
16:58 53.2 °F 50.4 °F 29.4 in WSW 12.1 mph 12 mph 90% 0.35 in 70 W/m2
17:03 53.4 °F 50.9 °F 29.4 in WNW 8.9 mph 11 mph 91% 0.33 in 107 W/m2
17:08 53.6 °F 51.1 °F 29.4 in West 6 mph 18 mph 91% 0.33 in 200 W/m2
17:13 53.4 °F 50.9 °F 29.4 in WNW 6.9 mph 14 mph 91% 0.32 in 155 W/m2
17:18 53.4 °F 50.9 °F 29.4 in WNW 6.9 mph 18 mph 91% 0.31 in 156 W/m2
17:23 53.2 °F 50.7 °F 29.4 in West 8.9 mph 9 mph 91% 0.31 in 127 W/m2
17:28 53.2 °F 50.7 °F 29.4 in WNW 4 mph 8 mph 91% 0.31 in 120 W/m2
17:33 53.1 °F 50.5 °F 29.4 in WNW 4.9 mph 8 mph 91% 0.28 in 214 W/m2
17:38 53.1 °F 50.5 °F 29.4 in WSW 4.9 mph 8 mph 91% 0.23 in 132 W/m2
17:43 53.1 °F 50.5 °F 29.4 in West 2.9 mph 11 mph 91% 0.19 in 123 W/m2
17:48 53.1 °F 50.5 °F 29.4 in West 8.1 mph 11 mph 91% 0.09 in 155 W/m2
17:53 53.2 °F 50.7 °F 29.4 in West 6.9 mph 7 mph 91% 0.04 in 192 W/m2
17:58 53.4 °F 50.9 °F 29.4 in West 8.1 mph 9 mph 91% 0.02 in 179 W/m2
18:03 53.4 °F 50.9 °F 29.4 in West 10.1 mph 10 mph 91% 0.02 in 121 W/m2
18:08 53.8 °F 51.3 °F 29.4 in WNW 2 mph 10 mph 91% 0.01 in 271 W/m2
18:13 54.1 °F 51.6 °F 29.4 in NW 6.9 mph 13 mph 91% 0.01 in 171 W/m2
18:18 54.5 °F 52 °F 29.4 in WSW 2 mph 7 mph 91% 0.01 in 171 W/m2
18:23 54.7 °F 51.8 °F 29.5 in West 6.9 mph 13 mph 90% 0.01 in 156 W/m2
18:28 54.7 °F 51.8 °F 29.5 in WNW 4 mph 7 mph 90% 0 in 227 W/m2
18:33 54.7 °F 51.8 °F 29.5 in West 2 mph 11 mph 90% 0 in 120 W/m2
18:38 54.7 °F 51.8 °F 29.5 in West 6 mph 6 mph 90% 0 in 125 W/m2
18:43 54.7 °F 51.8 °F 29.5 in WNW 4 mph 7 mph 90% 0 in 146 W/m2
18:48 54.7 °F 51.8 °F 29.5 in West 8.9 mph 9 mph 90% 0 in 139 W/m2
18:53 54.9 °F 52 °F 29.5 in West 6.9 mph 8 mph 90% 0 in 95 W/m2
Juneau County Weather
Compliments of Weather Underground - 2 mb